TimeCST,TemperatureF,Dew PointF,Humidity,Sea Level PressureIn,VisibilityMPH,Wind Direction,Wind SpeedMPH,Gust SpeedMPH,PrecipitationIn,Events,Conditions,WindDirDegrees,DateUTC
12:53 AM,43.0,30.0,60,29.98,10.0,SSW,8.1,-,N/A,,Clear,210,2013-01-19 06:53:00
1:53 AM,41.0,28.9,62,29.99,10.0,SSW,10.4,-,N/A,,Clear,210,2013-01-19 07:53:00
2:53 AM,41.0,28.9,62,29.97,10.0,SSW,11.5,-,N/A,,Clear,210,2013-01-19 08:53:00
3:53 AM,39.9,28.9,65,29.96,10.0,SSW,10.4,-,N/A,,Clear,200,2013-01-19 09:53:00
4:53 AM,39.0,28.9,67,29.95,10.0,SW,8.1,-,N/A,,Clear,220,2013-01-19 10:53:00
5:53 AM,37.0,28.0,70,29.96,10.0,SSW,6.9,-,N/A,,Clear,210,2013-01-19 11:53:00
6:53 AM,37.0,28.9,73,29.96,10.0,SW,5.8,-,N/A,,Clear,220,2013-01-19 12:53:00
7:53 AM,37.0,28.9,73,29.97,10.0,SSW,6.9,-,N/A,,Clear,200,2013-01-19 13:53:00
8:53 AM,39.9,30.0,68,29.98,10.0,SW,9.2,-,N/A,,Clear,220,2013-01-19 14:53:00
9:53 AM,44.1,30.9,60,30.02,10.0,WSW,6.9,-,N/A,,Clear,250,2013-01-19 15:53:00
10:53 AM,48.9,30.0,48,30.04,10.0,West,9.2,-,N/A,,Clear,260,2013-01-19 16:53:00
11:53 AM,52.0,28.9,41,30.01,10.0,West,8.1,-,N/A,,Clear,280,2013-01-19 17:53:00
12:53 PM,57.0,27.0,32,29.99,10.0,NNW,16.1,-,N/A,,Clear,330,2013-01-19 18:53:00
1:53 PM,59.0,28.0,31,29.99,10.0,WNW,13.8,-,N/A,,Clear,300,2013-01-19 19:53:00
2:53 PM,61.0,27.0,27,29.99,10.0,NW,15.0,-,N/A,,Clear,320,2013-01-19 20:53:00
3:53 PM,57.9,28.0,32,30.02,10.0,NW,23.0,-,N/A,,Clear,320,2013-01-19 21:53:00
4:53 PM,53.1,28.9,40,30.07,10.0,NNW,12.7,-,N/A,,Clear,330,2013-01-19 22:53:00
5:53 PM,44.1,28.0,53,30.12,10.0,WNW,8.1,-,N/A,,Clear,300,2013-01-19 23:53:00
6:53 PM,46.0,28.9,51,30.16,10.0,NNW,13.8,-,N/A,,Clear,330,2013-01-20 00:53:00
7:53 PM,37.9,27.0,65,30.19,10.0,North,5.8,-,N/A,,Clear,10,2013-01-20 01:53:00
8:53 PM,34.0,26.1,73,30.23,10.0,NNW,4.6,-,N/A,,Clear,330,2013-01-20 02:53:00
9:53 PM,39.0,27.0,62,30.25,10.0,North,10.4,-,N/A,,Clear,350,2013-01-20 03:53:00
11:53 PM,34.0,19.9,56,30.30,10.0,North,13.8,-,N/A,,Clear,350,2013-01-20 05:53:00